Time,TemperatureF,DewpointF,PressureIn,WindDirection,WindDirectionDegrees,WindSpeedMPH,WindSpeedGustMPH,Humidity,HourlyPrecipIn,Conditions,Clouds,dailyrainin,SoftwareType,DateUTC
2013-08-01 00:00:00,69.8,65.7,30.18,SSE,158,0.0,0.0,87,0.00,,,0.20,WUHU216HW,2013-08-01 04:00:00,
2013-08-01 00:05:00,69.6,65.5,30.19,SSE,158,0.0,0.0,87,0.00,,,0.00,WUHU216HW,2013-08-01 04:05:00,
2013-08-01 00:10:00,69.6,65.5,30.18,SSE,158,0.0,0.0,87,0.00,,,0.00,WUHU216HW,2013-08-01 04:10:00,
2013-08-01 00:15:00,69.6,65.5,30.18,SSE,158,0.0,0.0,87,0.00,,,0.00,WUHU216HW,2013-08-01 04:15:00,
2013-08-01 00:20:00,69.6,65.5,30.18,SSE,158,0.0,0.0,87,0.00,,,0.00,WUHU216HW,2013-08-01 04:20:00,
2013-08-01 00:25:00,69.6,65.5,30.18,SSE,158,0.0,0.0,87,0.00,,,0.00,WUHU216HW,2013-08-01 04:25:00,
2013-08-01 00:30:00,69.6,65.5,30.18,SSE,158,0.0,0.0,87,0.00,,,0.00,WUHU216HW,2013-08-01 04:30:00,
2013-08-01 00:35:00,69.6,65.5,30.18,SSE,158,0.0,0.0,87,0.00,,,0.00,WUHU216HW,2013-08-01 04:35:00,
2013-08-01 00:40:00,69.6,65.8,30.18,SSE,158,0.0,0.0,88,0.00,,,0.00,WUHU216HW,2013-08-01 04:40:00,
2013-08-01 00:45:00,69.6,65.8,30.18,SSE,158,0.0,0.0,88,0.00,,,0.00,WUHU216HW,2013-08-01 04:45:00,
2013-08-01 00:50:00,69.6,65.8,30.18,SSE,158,0.0,0.0,88,0.00,,,0.00,WUHU216HW,2013-08-01 04:50:00,
2013-08-01 00:55:00,69.4,65.6,30.17,SSE,158,0.0,0.0,88,0.00,,,0.00,WUHU216HW,2013-08-01 04:55:00,
2013-08-01 01:00:00,69.4,65.6,30.17,SSE,158,0.0,0.0,88,0.00,,,0.00,WUHU216HW,2013-08-01 05:00:00,
2013-08-01 01:05:00,69.4,65.6,30.17,SSE,158,0.0,0.0,88,0.00,,,0.00,WUHU216HW,2013-08-01 05:05:00,
2013-08-01 01:10:00,69.4,65.6,30.17,SSE,158,0.0,0.0,88,0.00,,,0.00,WUHU216HW,2013-08-01 05:10:00,
2013-08-01 01:15:00,69.4,65.6,30.17,SSE,158,0.0,0.0,88,0.00,,,0.00,WUHU216HW,2013-08-01 05:15:00,
2013-08-01 01:20:00,69.4,65.6,30.17,SSE,158,0.0,0.0,88,0.00,,,0.00,WUHU216HW,2013-08-01 05:20:00,
2013-08-01 01:25:00,69.4,65.6,30.17,SSE,158,0.0,0.0,88,0.00,,,0.00,WUHU216HW,2013-08-01 05:25:00,
2013-08-01 01:30:00,69.4,65.6,30.16,SSE,158,0.0,0.0,88,0.00,,,0.00,WUHU216HW,2013-08-01 05:30:00,
2013-08-01 01:35:00,69.4,65.6,30.16,SSE,158,0.0,0.0,88,0.00,,,0.00,WUHU216HW,2013-08-01 05:35:00,
2013-08-01 01:40:00,69.2,65.5,30.16,SSE,158,0.0,0.0,88,0.00,,,0.00,WUHU216HW,2013-08-01 05:40:00,
2013-08-01 01:45:00,69.0,65.3,30.16,SSE,158,0.0,0.0,88,0.00,,,0.00,WUHU216HW,2013-08-01 05:45:00,
2013-08-01 01:50:00,69.0,65.3,30.16,SSE,158,0.0,0.0,88,0.00,,,0.00,WUHU216HW,2013-08-01 05:50:00,
2013-08-01 01:55:00,69.0,65.3,30.15,SSE,158,0.0,0.0,88,0.00,,,0.00,WUHU216HW,2013-08-01 05:55:00,
2013-08-01 02:00:00,69.0,65.3,30.15,SSE,158,0.0,0.0,88,0.00,,,0.00,WUHU216HW,2013-08-01 06:00:00,
2013-08-01 02:05:00,69.0,65.3,30.15,SSE,158,0.0,0.0,88,0.00,,,0.00,WUHU216HW,2013-08-01 06:05:00,
2013-08-01 02:10:00,69.0,65.3,30.15,SSE,158,0.0,0.0,88,0.00,,,0.00,WUHU216HW,2013-08-01 06:10:00,
2013-08-01 02:15:00,69.0,65.3,30.15,SSE,158,0.0,0.0,88,0.00,,,0.00,WUHU216HW,2013-08-01 06:15:00,
2013-08-01 02:20:00,68.9,65.4,30.15,SSE,158,0.0,0.0,89,0.00,,,0.00,WUHU216HW,2013-08-01 06:20:00,
2013-08-01 02:25:00,68.9,65.4,30.15,SSE,158,0.0,0.0,89,0.00,,,0.00,WUHU216HW,2013-08-01 06:25:00,
2013-08-01 02:30:00,68.9,65.4,30.15,SSE,158,0.0,0.0,89,0.00,,,0.00,WUHU216HW,2013-08-01 06:30:00,
2013-08-01 02:35:00,68.9,65.4,30.15,SSE,158,0.0,0.0,89,0.00,,,0.00,WUHU216HW,2013-08-01 06:35:00,
2013-08-01 02:40:00,68.9,65.4,30.15,SSE,158,0.0,0.0,89,0.00,,,0.00,WUHU216HW,2013-08-01 06:40:00,
2013-08-01 02:45:00,68.9,65.4,30.16,SSE,158,0.0,0.0,89,0.00,,,0.00,WUHU216HW,2013-08-01 06:45:00,
2013-08-01 02:50:00,68.9,65.4,30.16,SSE,158,0.0,0.0,89,0.00,,,0.00,WUHU216HW,2013-08-01 06:50:00,
2013-08-01 02:55:00,68.9,65.4,30.16,SSE,158,0.0,0.0,89,0.00,,,0.00,WUHU216HW,2013-08-01 06:55:00,
2013-08-01 03:00:00,68.9,65.4,30.15,SSE,158,0.0,0.0,89,0.00,,,0.00,WUHU216HW,2013-08-01 07:00:00,
2013-08-01 03:05:00,68.9,65.4,30.15,SSE,158,0.0,0.0,89,0.00,,,0.00,WUHU216HW,2013-08-01 07:05:00,
2013-08-01 03:10:00,69.0,65.6,30.15,SSE,158,0.0,0.0,89,0.00,,,0.00,WUHU216HW,2013-08-01 07:10:00,
2013-08-01 03:15:00,69.0,65.6,30.15,SSE,158,0.0,0.0,89,0.00,,,0.00,WUHU216HW,2013-08-01 07:15:00,
2013-08-01 03:20:00,69.0,65.6,30.15,SSE,158,0.0,0.0,89,0.00,,,0.00,WUHU216HW,2013-08-01 07:20:00,
2013-08-01 03:25:00,69.0,65.6,30.15,SSE,158,0.0,0.0,89,0.00,,,0.00,WUHU216HW,2013-08-01 07:25:00,
2013-08-01 03:30:00,69.0,65.6,30.15,SSE,158,0.0,0.0,89,0.00,,,0.00,WUHU216HW,2013-08-01 07:30:00,
2013-08-01 03:40:00,69.0,65.6,30.15,SSE,158,0.0,0.0,89,0.00,,,0.00,WUHU216HW,2013-08-01 07:40:00,
2013-08-01 03:45:00,69.0,65.6,30.15,SSE,158,0.0,0.0,89,0.00,,,0.00,WUHU216HW,2013-08-01 07:45:00,
2013-08-01 03:50:00,69.0,65.6,30.14,SSE,158,0.0,0.0,89,0.00,,,0.00,WUHU216HW,2013-08-01 07:50:00,
2013-08-01 03:55:00,69.0,65.6,30.14,SSE,158,0.0,0.0,89,0.00,,,0.00,WUHU216HW,2013-08-01 07:55:00,
2013-08-01 04:00:00,68.9,65.4,30.14,SSE,158,0.0,0.0,89,0.00,,,0.00,WUHU216HW,2013-08-01 08:00:00,
2013-08-01 04:06:00,68.9,65.4,30.14,SSE,158,0.0,0.0,89,0.00,,,0.00,WUHU216HW,2013-08-01 08:06:00,
2013-08-01 04:11:00,68.9,65.4,30.14,SSE,158,0.0,0.0,89,0.00,,,0.00,WUHU216HW,2013-08-01 08:11:00,
2013-08-01 04:16:00,68.9,65.4,30.13,SSE,158,0.0,0.0,89,0.00,,,0.00,WUHU216HW,2013-08-01 08:16:00,
2013-08-01 04:21:00,68.9,65.4,30.13,SSE,158,0.0,0.0,89,0.00,,,0.00,WUHU216HW,2013-08-01 08:21:00,
2013-08-01 04:26:00,68.9,65.4,30.13,SSE,158,0.0,0.0,89,0.00,,,0.00,WUHU216HW,2013-08-01 08:26:00,
2013-08-01 04:31:00,68.7,65.3,30.13,SSE,158,0.0,0.0,89,0.00,,,0.00,WUHU216HW,2013-08-01 08:31:00,
2013-08-01 04:36:00,68.9,65.4,30.13,SSE,158,0.0,0.0,89,0.00,,,0.00,WUHU216HW,2013-08-01 08:36:00,
2013-08-01 04:41:00,68.7,65.3,30.13,SSE,158,0.0,0.0,89,0.00,,,0.00,WUHU216HW,2013-08-01 08:41:00,
2013-08-01 04:46:00,68.7,65.3,30.13,SSE,158,0.0,0.0,89,0.00,,,0.00,WUHU216HW,2013-08-01 08:46:00,
2013-08-01 04:52:00,68.7,65.3,30.13,SSE,158,0.0,0.0,89,0.00,,,0.00,WUHU216HW,2013-08-01 08:52:00,
2013-08-01 04:57:00,68.7,65.3,30.13,SSE,158,0.0,0.0,89,0.00,,,0.00,WUHU216HW,2013-08-01 08:57:00,
2013-08-01 05:03:00,68.7,65.3,30.14,SSE,158,0.0,0.0,89,0.00,,,0.00,WUHU216HW,2013-08-01 09:03:00,
2013-08-01 05:08:00,68.7,65.3,30.14,SSE,158,0.0,0.0,89,0.00,,,0.00,WUHU216HW,2013-08-01 09:08:00,
2013-08-01 05:13:00,68.7,65.3,30.14,SSE,158,0.0,0.0,89,0.00,,,0.00,WUHU216HW,2013-08-01 09:13:00,
2013-08-01 05:18:00,68.5,65.1,30.13,SSE,158,0.0,0.0,89,0.00,,,0.00,WUHU216HW,2013-08-01 09:18:00,
2013-08-01 05:23:00,68.5,65.1,30.14,SSE,158,0.0,0.0,89,0.00,,,0.00,WUHU216HW,2013-08-01 09:23:00,
2013-08-01 05:28:00,68.5,65.1,30.13,SSE,158,0.0,0.0,89,0.00,,,0.00,WUHU216HW,2013-08-01 09:28:00,
2013-08-01 05:33:00,68.5,65.1,30.13,SSE,158,0.0,0.0,89,0.00,,,0.00,WUHU216HW,2013-08-01 09:33:00,
2013-08-01 05:38:00,68.5,65.1,30.13,SSE,158,0.0,0.0,89,0.00,,,0.00,WUHU216HW,2013-08-01 09:38:00,
2013-08-01 05:44:00,68.5,65.1,30.13,SSE,158,0.0,0.0,89,0.00,,,0.00,WUHU216HW,2013-08-01 09:44:00,
2013-08-01 05:49:00,68.5,65.1,30.13,SSE,158,0.0,0.0,89,0.00,,,0.00,WUHU216HW,2013-08-01 09:49:00,
2013-08-01 05:55:00,68.5,65.1,30.13,SSE,158,0.0,0.0,89,0.00,,,0.00,WUHU216HW,2013-08-01 09:55:00,
2013-08-01 06:04:00,68.5,65.1,30.13,SSE,158,0.0,0.0,89,0.00,,,0.00,WUHU216HW,2013-08-01 10:04:00,
2013-08-01 06:14:00,68.1,64.7,30.13,SSE,158,0.0,0.0,89,0.00,,,0.00,WUHU216HW,2013-08-01 10:14:00,
2013-08-01 06:19:00,68.1,64.7,30.13,SSE,158,0.0,0.0,89,0.00,,,0.00,WUHU216HW,2013-08-01 10:19:00,
2013-08-01 06:25:00,68.0,64.6,30.14,SSE,158,0.0,0.0,89,0.00,,,0.00,WUHU216HW,2013-08-01 10:25:00,
2013-08-01 06:30:00,67.8,64.4,30.14,SSE,158,0.0,0.0,89,0.00,,,0.00,WUHU216HW,2013-08-01 10:30:00,
2013-08-01 06:35:00,67.8,64.4,30.14,SSE,158,0.0,0.0,89,0.00,,,0.00,WUHU216HW,2013-08-01 10:35:00,
2013-08-01 06:40:00,67.8,64.4,30.14,SSE,158,0.0,0.0,89,0.00,,,0.00,WUHU216HW,2013-08-01 10:40:00,
2013-08-01 06:45:00,67.8,64.4,30.14,SSE,158,0.0,0.0,89,0.00,,,0.00,WUHU216HW,2013-08-01 10:45:00,
2013-08-01 06:50:00,67.8,64.4,30.15,SSE,158,0.0,0.0,89,0.00,,,0.00,WUHU216HW,2013-08-01 10:50:00,
2013-08-01 06:56:00,67.6,64.2,30.15,SSE,158,0.0,0.0,89,0.00,,,0.00,WUHU216HW,2013-08-01 10:56:00,
2013-08-01 07:02:00,67.6,64.2,30.15,SSE,158,0.0,0.0,89,0.00,,,0.00,WUHU216HW,2013-08-01 11:02:00,
2013-08-01 07:07:00,67.6,64.5,30.15,SSE,158,0.0,0.0,90,0.00,,,0.00,WUHU216HW,2013-08-01 11:07:00,
2013-08-01 07:12:00,67.6,64.5,30.15,SSE,158,0.0,0.0,90,0.00,,,0.00,WUHU216HW,2013-08-01 11:12:00,
2013-08-01 07:17:00,67.6,64.5,30.15,SSE,158,0.0,0.0,90,0.00,,,0.00,WUHU216HW,2013-08-01 11:17:00,
2013-08-01 07:22:00,67.8,64.7,30.15,SSE,158,0.0,0.0,90,0.00,,,0.00,WUHU216HW,2013-08-01 11:22:00,
2013-08-01 07:27:00,67.8,64.7,30.15,SSE,158,0.0,0.0,90,0.00,,,0.00,WUHU216HW,2013-08-01 11:27:00,
2013-08-01 07:32:00,67.8,64.7,30.15,SSE,158,0.0,0.0,90,0.00,,,0.00,WUHU216HW,2013-08-01 11:32:00,
2013-08-01 07:37:00,67.8,64.7,30.15,SSE,158,0.0,0.0,90,0.00,,,0.00,WUHU216HW,2013-08-01 11:37:00,
2013-08-01 07:42:00,67.8,64.7,30.15,SSE,158,0.0,0.0,90,0.00,,,0.00,WUHU216HW,2013-08-01 11:42:00,
2013-08-01 07:48:00,67.8,64.7,30.15,SSE,158,0.0,0.0,90,0.00,,,0.00,WUHU216HW,2013-08-01 11:48:00,
2013-08-01 07:54:00,67.8,64.7,30.15,SSE,158,0.0,0.0,90,0.00,,,0.00,WUHU216HW,2013-08-01 11:54:00,
2013-08-01 07:59:00,68.1,64.9,30.14,SSE,158,0.0,0.0,90,0.00,,,0.00,WUHU216HW,2013-08-01 11:59:00,
2013-08-01 08:04:00,68.1,65.1,30.14,SSE,158,0.0,0.0,90,0.00,,,0.00,WUHU216HW,2013-08-01 12:04:00,
2013-08-01 08:09:00,68.3,65.3,30.15,SSE,158,0.0,0.0,90,0.00,,,0.00,WUHU216HW,2013-08-01 12:09:00,
2013-08-01 08:14:00,68.5,65.4,30.15,SSE,158,0.0,0.0,90,0.00,,,0.00,WUHU216HW,2013-08-01 12:14:00,
2013-08-01 08:19:00,68.5,65.4,30.15,SSE,158,0.0,0.0,90,0.00,,,0.00,WUHU216HW,2013-08-01 12:19:00,
2013-08-01 08:24:00,68.7,65.6,30.15,SSE,158,0.0,0.0,90,0.00,,,0.00,WUHU216HW,2013-08-01 12:24:00,
2013-08-01 08:29:00,68.7,65.6,30.15,SSE,158,0.0,0.0,90,0.00,,,0.00,WUHU216HW,2013-08-01 12:29:00,
2013-08-01 08:34:00,68.7,65.6,30.15,SSE,158,0.0,0.0,90,0.00,,,0.00,WUHU216HW,2013-08-01 12:34:00,
2013-08-01 08:39:00,68.7,65.6,30.16,SSE,158,0.0,0.0,90,0.00,,,0.00,WUHU216HW,2013-08-01 12:39:00,
2013-08-01 08:44:00,68.7,65.6,30.15,SSE,158,0.0,0.0,90,0.00,,,0.00,WUHU216HW,2013-08-01 12:44:00,
2013-08-01 08:50:00,68.9,66.1,30.15,South,180,0.0,0.0,91,0.00,,,0.00,WUHU216HW,2013-08-01 12:50:00,
2013-08-01 08:55:00,69.0,66.3,30.16,SW,225,0.0,0.0,91,0.00,,,0.00,WUHU216HW,2013-08-01 12:55:00,
2013-08-01 09:00:00,69.0,66.3,30.15,SW,225,0.0,0.0,91,0.00,,,0.00,WUHU216HW,2013-08-01 13:00:00,
2013-08-01 09:05:00,69.4,66.6,30.15,SW,225,0.0,0.0,91,0.00,,,0.00,WUHU216HW,2013-08-01 13:05:00,
2013-08-01 09:11:00,69.4,66.6,30.15,SW,225,0.0,0.0,91,0.00,,,0.00,WUHU216HW,2013-08-01 13:11:00,
2013-08-01 09:17:00,69.6,66.8,30.15,SW,225,0.0,0.0,91,0.00,,,0.00,WUHU216HW,2013-08-01 13:17:00,
2013-08-01 09:22:00,69.6,66.8,30.15,SW,225,0.0,0.0,91,0.00,,,0.00,WUHU216HW,2013-08-01 13:22:00,
2013-08-01 09:27:00,69.9,67.2,30.16,SW,225,0.0,0.0,91,0.00,,,0.00,WUHU216HW,2013-08-01 13:27:00,
2013-08-01 09:32:00,70.1,67.4,30.15,SW,225,0.0,0.0,91,0.00,,,0.00,WUHU216HW,2013-08-01 13:32:00,
2013-08-01 09:38:00,70.3,67.5,30.15,SW,225,0.0,0.0,91,0.00,,,0.00,WUHU216HW,2013-08-01 13:38:00,
2013-08-01 09:43:00,70.5,67.4,30.15,SW,225,0.0,0.0,90,0.00,,,0.00,WUHU216HW,2013-08-01 13:43:00,
2013-08-01 09:48:00,70.5,67.4,30.15,SW,225,0.0,0.0,90,0.00,,,0.00,WUHU216HW,2013-08-01 13:48:00,
2013-08-01 09:54:00,70.5,67.4,30.15,WSW,248,0.0,0.0,90,0.00,,,0.00,WUHU216HW,2013-08-01 13:54:00,
2013-08-01 09:59:00,70.7,67.6,30.15,WSW,248,0.0,0.0,90,0.00,,,0.00,WUHU216HW,2013-08-01 13:59:00,
2013-08-01 10:04:00,70.8,67.8,30.16,WNW,293,0.0,0.0,90,0.00,,,0.00,WUHU216HW,2013-08-01 14:04:00,
2013-08-01 10:10:00,71.2,68.1,30.16,WNW,293,0.0,0.0,90,0.00,,,0.00,WUHU216HW,2013-08-01 14:10:00,
2013-08-01 10:15:00,71.2,68.1,30.16,WNW,293,0.0,0.0,90,0.00,,,0.00,WUHU216HW,2013-08-01 14:15:00,
2013-08-01 10:20:00,71.4,68.3,30.16,WNW,293,0.0,0.0,90,0.00,,,0.00,WUHU216HW,2013-08-01 14:20:00,
2013-08-01 10:25:00,71.7,68.7,30.16,WNW,293,0.0,0.0,90,0.00,,,0.00,WUHU216HW,2013-08-01 14:25:00,
2013-08-01 10:30:00,71.7,68.7,30.15,West,270,0.0,0.0,90,0.00,,,0.00,WUHU216HW,2013-08-01 14:30:00,
2013-08-01 10:35:00,72.1,69.0,30.16,WNW,293,0.0,0.0,90,0.00,,,0.00,WUHU216HW,2013-08-01 14:35:00,
2013-08-01 10:40:00,72.3,68.9,30.16,WNW,293,0.0,0.0,89,0.00,,,0.00,WUHU216HW,2013-08-01 14:40:00,
2013-08-01 10:45:00,72.6,69.6,30.16,NNW,338,0.0,0.0,90,0.00,,,0.00,WUHU216HW,2013-08-01 14:45:00,
2013-08-01 10:50:00,73.2,69.4,30.15,North,0,0.0,0.0,88,0.00,,,0.00,WUHU216HW,2013-08-01 14:50:00,
2013-08-01 10:55:00,73.2,69.4,30.15,NNW,338,0.0,0.0,88,0.00,,,0.00,WUHU216HW,2013-08-01 14:55:00,
2013-08-01 11:01:00,73.5,69.4,30.15,NNW,338,0.0,0.0,87,0.00,,,0.00,WUHU216HW,2013-08-01 15:01:00,
2013-08-01 11:06:00,73.7,69.6,30.15,NNW,338,0.0,0.0,87,0.00,,,0.00,WUHU216HW,2013-08-01 15:06:00,
2013-08-01 11:11:00,73.9,69.8,30.15,NW,315,0.0,0.0,87,0.00,,,0.00,WUHU216HW,2013-08-01 15:11:00,
2013-08-01 11:16:00,74.1,69.6,30.15,NW,315,0.0,0.0,86,0.00,,,0.00,WUHU216HW,2013-08-01 15:16:00,
2013-08-01 11:21:00,74.3,69.5,30.15,NW,315,0.0,0.0,85,0.00,,,0.00,WUHU216HW,2013-08-01 15:21:00,
2013-08-01 11:27:00,74.6,69.8,30.15,NNW,338,0.0,0.0,85,0.00,,,0.00,WUHU216HW,2013-08-01 15:27:00,
2013-08-01 11:32:00,75.0,70.2,30.16,NNW,338,0.0,0.0,85,0.00,,,0.00,WUHU216HW,2013-08-01 15:32:00,
2013-08-01 11:38:00,75.0,69.9,30.16,WSW,248,0.0,0.0,84,0.00,,,0.00,WUHU216HW,2013-08-01 15:38:00,
2013-08-01 11:43:00,75.0,69.9,30.16,WSW,248,0.0,0.0,84,0.00,,,0.00,WUHU216HW,2013-08-01 15:43:00,
2013-08-01 11:48:00,74.8,69.7,30.16,WNW,293,0.0,0.0,84,0.00,,,0.00,WUHU216HW,2013-08-01 15:48:00,
2013-08-01 11:53:00,74.4,69.3,30.16,WNW,293,0.0,0.0,84,0.00,,,0.00,WUHU216HW,2013-08-01 15:53:00,
2013-08-01 11:59:00,74.1,69.0,30.16,WNW,293,0.0,0.0,84,0.00,,,0.00,WUHU216HW,2013-08-01 15:59:00,
2013-08-01 12:04:00,74.1,69.0,30.16,NNW,338,0.0,0.0,84,0.00,,,0.00,WUHU216HW,2013-08-01 16:04:00,
2013-08-01 12:09:00,73.9,68.8,30.16,NNW,338,0.0,0.0,84,0.00,,,0.00,WUHU216HW,2013-08-01 16:09:00,
2013-08-01 12:14:00,74.1,69.3,30.16,NNW,338,0.0,0.0,85,0.00,,,0.00,WUHU216HW,2013-08-01 16:14:00,
2013-08-01 12:20:00,74.4,69.7,30.16,NNW,338,0.0,0.0,85,0.00,,,0.00,WUHU216HW,2013-08-01 16:20:00,
2013-08-01 12:25:00,75.0,69.9,30.16,NNW,338,0.0,0.0,84,0.00,,,0.00,WUHU216HW,2013-08-01 16:25:00,
2013-08-01 12:30:00,75.2,69.7,30.16,NNW,338,0.0,0.0,83,0.00,,,0.00,WUHU216HW,2013-08-01 16:30:00,
2013-08-01 12:35:00,75.0,69.2,30.16,NNW,338,0.0,0.0,82,0.00,,,0.00,WUHU216HW,2013-08-01 16:35:00,
2013-08-01 12:41:00,74.8,69.0,30.16,NNW,338,0.0,0.0,82,0.00,,,0.00,WUHU216HW,2013-08-01 16:41:00,
2013-08-01 12:46:00,75.0,69.2,30.16,NNW,338,0.0,0.0,82,0.00,,,0.00,WUHU216HW,2013-08-01 16:46:00,
2013-08-01 12:51:00,74.8,69.0,30.16,NNW,338,0.0,0.0,82,0.00,,,0.00,WUHU216HW,2013-08-01 16:51:00,
2013-08-01 12:56:00,74.8,69.0,30.16,SSW,203,0.0,0.0,82,0.00,,,0.00,WUHU216HW,2013-08-01 16:56:00,
2013-08-01 13:01:00,74.8,69.0,30.15,SSW,203,0.0,0.0,82,0.00,,,0.00,WUHU216HW,2013-08-01 17:01:00,
2013-08-01 13:06:00,74.4,68.6,30.15,SSW,203,0.0,0.0,82,0.00,,,0.00,WUHU216HW,2013-08-01 17:06:00,
2013-08-01 13:11:00,74.8,69.0,30.15,SSW,203,0.0,0.0,82,0.00,,,0.00,WUHU216HW,2013-08-01 17:11:00,
2013-08-01 13:17:00,74.8,69.0,30.15,WSW,248,0.0,0.0,82,0.00,,,0.00,WUHU216HW,2013-08-01 17:17:00,
2013-08-01 13:22:00,75.0,69.2,30.15,WSW,248,0.0,0.0,82,0.00,,,0.00,WUHU216HW,2013-08-01 17:22:00,
2013-08-01 13:27:00,75.3,69.5,30.15,WSW,248,0.0,0.0,82,0.00,,,0.00,WUHU216HW,2013-08-01 17:27:00,
2013-08-01 13:32:00,75.9,69.8,30.15,NNE,23,0.0,0.0,81,0.00,,,0.00,WUHU216HW,2013-08-01 17:32:00,
2013-08-01 13:37:00,76.2,69.6,30.14,North,0,0.0,0.0,80,0.00,,,0.00,WUHU216HW,2013-08-01 17:37:00,
2013-08-01 13:42:00,76.6,70.0,30.14,WSW,248,0.0,0.0,80,0.00,,,0.00,WUHU216HW,2013-08-01 17:42:00,
2013-08-01 13:47:00,77.1,70.5,30.14,NNW,338,0.0,0.0,80,0.00,,,0.00,WUHU216HW,2013-08-01 17:47:00,
2013-08-01 13:52:00,77.5,70.1,30.13,WSW,248,0.0,0.0,78,0.00,,,0.00,WUHU216HW,2013-08-01 17:52:00,
2013-08-01 13:57:00,77.7,69.5,30.13,NNW,338,0.0,0.0,76,0.00,,,0.00,WUHU216HW,2013-08-01 17:57:00,
2013-08-01 14:02:00,77.7,69.5,30.13,North,0,0.0,0.0,76,0.00,,,0.00,WUHU216HW,2013-08-01 18:02:00,
2013-08-01 14:07:00,77.7,69.5,30.13,WSW,248,3.8,3.8,76,0.00,,,0.00,WUHU216HW,2013-08-01 18:07:00,
2013-08-01 14:12:00,77.7,69.5,30.13,NW,315,0.0,3.8,76,0.00,,,0.00,WUHU216HW,2013-08-01 18:12:00,
2013-08-01 14:17:00,77.9,69.2,30.13,NNW,338,0.0,3.8,75,0.00,,,0.00,WUHU216HW,2013-08-01 18:17:00,
2013-08-01 14:22:00,78.0,69.4,30.13,NNW,338,0.0,0.0,75,0.00,,,0.00,WUHU216HW,2013-08-01 18:22:00,
2013-08-01 14:27:00,78.4,69.8,30.13,NNE,23,0.0,0.0,75,0.00,,,0.00,WUHU216HW,2013-08-01 18:27:00,
2013-08-01 14:32:00,78.4,69.0,30.14,NNW,338,0.0,0.0,74,0.00,,,0.00,WUHU216HW,2013-08-01 18:32:00,
2013-08-01 14:37:00,77.9,68.9,30.14,NNW,338,0.0,0.0,74,0.00,,,0.00,WUHU216HW,2013-08-01 18:37:00,
2013-08-01 14:42:00,78.0,69.0,30.14,WSW,248,0.0,0.0,74,0.00,,,0.00,WUHU216HW,2013-08-01 18:42:00,
2013-08-01 14:47:00,78.2,69.6,30.14,WSW,248,0.0,0.0,75,0.00,,,0.00,WUHU216HW,2013-08-01 18:47:00,
2013-08-01 14:53:00,78.9,70.3,30.14,WSW,248,0.0,0.0,75,0.00,,,0.00,WUHU216HW,2013-08-01 18:53:00,
2013-08-01 14:58:00,80.2,71.2,30.14,WSW,248,0.0,0.0,74,0.00,,,0.00,WUHU216HW,2013-08-01 18:58:00,
2013-08-01 15:03:00,80.7,70.5,30.13,WSW,248,0.0,0.0,71,0.00,,,0.00,WUHU216HW,2013-08-01 19:03:00,
2013-08-01 15:08:00,81.1,70.8,30.13,WSW,248,0.0,0.0,71,0.00,,,0.00,WUHU216HW,2013-08-01 19:08:00,
2013-08-01 15:13:00,82.0,70.8,30.13,WSW,248,0.0,0.0,69,0.00,,,0.00,WUHU216HW,2013-08-01 19:13:00,
2013-08-01 15:18:00,82.2,70.5,30.13,WSW,248,0.0,0.0,68,0.00,,,0.00,WUHU216HW,2013-08-01 19:18:00,
2013-08-01 15:23:00,82.4,70.7,30.13,WSW,248,0.0,0.0,68,0.00,,,0.00,WUHU216HW,2013-08-01 19:23:00,
2013-08-01 15:28:00,82.0,69.4,30.13,West,270,0.0,0.0,66,0.00,,,0.00,WUHU216HW,2013-08-01 19:28:00,
2013-08-01 15:33:00,81.6,70.0,30.13,WSW,248,0.0,0.0,68,0.00,,,0.00,WUHU216HW,2013-08-01 19:33:00,
2013-08-01 15:39:00,81.6,69.6,30.12,WSW,248,0.0,0.0,67,0.00,,,0.00,WUHU216HW,2013-08-01 19:39:00,
2013-08-01 15:44:00,81.8,70.2,30.12,WSW,248,0.0,0.0,68,0.00,,,0.00,WUHU216HW,2013-08-01 19:44:00,
2013-08-01 15:50:00,82.2,71.4,30.12,WSW,248,0.0,0.0,70,0.00,,,0.00,WUHU216HW,2013-08-01 19:50:00,
2013-08-01 15:55:00,83.1,71.4,30.12,WSW,248,0.0,3.1,68,0.00,,,0.00,WUHU216HW,2013-08-01 19:55:00,
2013-08-01 16:00:00,83.6,70.8,30.12,WSW,248,0.0,3.1,65,0.00,,,0.00,WUHU216HW,2013-08-01 20:00:00,
2013-08-01 16:05:00,83.6,70.1,30.12,WSW,248,0.0,4.9,64,0.00,,,0.00,WUHU216HW,2013-08-01 20:05:00,
2013-08-01 16:11:00,83.4,69.9,30.12,WSW,248,0.0,4.9,64,0.00,,,0.00,WUHU216HW,2013-08-01 20:11:00,
2013-08-01 16:17:00,83.1,69.1,30.12,WSW,248,0.0,0.0,63,0.00,,,0.00,WUHU216HW,2013-08-01 20:17:00,
2013-08-01 16:22:00,83.3,69.3,30.13,WSW,248,0.0,0.8,63,0.00,,,0.00,WUHU216HW,2013-08-01 20:22:00,
2013-08-01 16:27:00,83.4,69.9,30.13,WSW,248,0.0,0.8,64,0.00,,,0.00,WUHU216HW,2013-08-01 20:27:00,
2013-08-01 16:32:00,84.0,70.5,30.12,WSW,248,0.0,0.0,64,0.00,,,0.00,WUHU216HW,2013-08-01 20:32:00,
2013-08-01 16:37:00,84.5,70.5,30.12,WSW,248,0.0,0.0,63,0.00,,,0.00,WUHU216HW,2013-08-01 20:37:00,
2013-08-01 16:42:00,84.7,70.7,30.13,WSW,248,0.0,0.0,63,0.00,,,0.00,WUHU216HW,2013-08-01 20:42:00,
2013-08-01 16:47:00,85.1,70.6,30.13,WSW,248,0.0,1.3,62,0.00,,,0.00,WUHU216HW,2013-08-01 20:47:00,
2013-08-01 16:52:00,85.1,70.6,30.13,WSW,248,5.1,5.1,62,0.00,,,0.00,WUHU216HW,2013-08-01 20:52:00,
2013-08-01 16:57:00,84.9,69.5,30.13,WSW,248,0.0,5.1,60,0.00,,,0.00,WUHU216HW,2013-08-01 20:57:00,
2013-08-01 17:02:00,84.3,69.6,30.13,WSW,248,0.0,5.1,61,0.00,,,0.00,WUHU216HW,2013-08-01 21:02:00,
2013-08-01 17:07:00,84.2,69.8,30.13,WSW,248,0.0,0.0,62,0.00,,,0.00,WUHU216HW,2013-08-01 21:07:00,
2013-08-01 17:12:00,84.2,69.3,30.12,WSW,248,0.0,0.0,61,0.00,,,0.00,WUHU216HW,2013-08-01 21:12:00,
2013-08-01 17:17:00,83.8,68.9,30.13,WSW,248,0.0,2.6,61,0.00,,,0.00,WUHU216HW,2013-08-01 21:17:00,
2013-08-01 17:22:00,83.6,68.3,30.13,WSW,248,0.0,2.6,60,0.00,,,0.00,WUHU216HW,2013-08-01 21:22:00,
2013-08-01 17:27:00,83.3,68.9,30.13,NNW,338,0.0,1.5,62,0.00,,,0.00,WUHU216HW,2013-08-01 21:27:00,
2013-08-01 17:32:00,82.5,67.7,30.13,North,0,0.0,0.0,61,0.00,,,0.00,WUHU216HW,2013-08-01 21:32:00,
2013-08-01 17:37:00,81.8,67.0,30.13,North,0,0.0,0.0,61,0.00,,,0.00,WUHU216HW,2013-08-01 21:37:00,
2013-08-01 17:42:00,81.1,67.3,30.13,WSW,248,0.0,0.0,63,0.00,,,0.00,WUHU216HW,2013-08-01 21:42:00,
2013-08-01 17:48:00,81.3,67.9,30.13,WSW,248,0.0,0.8,64,0.00,,,0.00,WUHU216HW,2013-08-01 21:48:00,
2013-08-01 17:53:00,81.5,68.0,30.13,WSW,248,0.2,0.8,64,0.00,,,0.00,WUHU216HW,2013-08-01 21:53:00,
2013-08-01 17:58:00,81.5,67.6,30.13,North,0,0.0,0.2,63,0.00,,,0.00,WUHU216HW,2013-08-01 21:58:00,
2013-08-01 18:03:00,81.1,67.3,30.13,NW,315,0.0,0.2,63,0.00,,,0.00,WUHU216HW,2013-08-01 22:03:00,
2013-08-01 18:08:00,80.9,67.6,30.13,WSW,248,0.0,0.0,64,0.00,,,0.00,WUHU216HW,2013-08-01 22:08:00,
2013-08-01 18:13:00,81.1,67.7,30.13,WSW,248,0.0,0.0,64,0.00,,,0.00,WUHU216HW,2013-08-01 22:13:00,
2013-08-01 18:18:00,81.3,67.4,30.13,WSW,248,0.0,0.0,63,0.00,,,0.00,WUHU216HW,2013-08-01 22:18:00,
2013-08-01 18:23:00,81.5,67.6,30.13,WSW,248,0.0,0.0,63,0.00,,,0.00,WUHU216HW,2013-08-01 22:23:00,
2013-08-01 18:28:00,81.5,67.6,30.13,WSW,248,0.0,0.0,62,0.00,,,0.00,WUHU216HW,2013-08-01 22:28:00,
2013-08-01 18:33:00,81.3,67.4,30.13,WSW,248,0.0,0.0,63,0.00,,,0.00,WUHU216HW,2013-08-01 22:33:00,
2013-08-01 18:38:00,81.1,67.3,30.13,North,0,0.0,0.0,63,0.00,,,0.00,WUHU216HW,2013-08-01 22:38:00,
2013-08-01 18:43:00,80.6,66.3,30.13,NNW,338,0.0,0.0,62,0.00,,,0.00,WUHU216HW,2013-08-01 22:43:00,
2013-08-01 18:49:00,80.4,66.6,30.13,NNW,338,0.0,0.0,63,0.00,,,0.00,WUHU216HW,2013-08-01 22:49:00,
2013-08-01 18:54:00,80.2,66.4,30.13,West,270,0.0,0.0,63,0.00,,,0.00,WUHU216HW,2013-08-01 22:54:00,
2013-08-01 18:58:00,79.7,66.4,30.13,NNW,338,0.0,0.0,64,0.00,,,0.00,WUHU216HW,2013-08-01 22:58:00,
2013-08-01 19:04:00,79.3,66.5,30.13,NW,315,0.0,0.0,65,0.00,,,0.00,WUHU216HW,2013-08-01 23:04:00,
2013-08-01 19:09:00,79.1,66.3,30.13,NNW,338,2.2,2.2,65,0.00,,,0.00,WUHU216HW,2013-08-01 23:09:00,
2013-08-01 19:14:00,78.6,65.8,30.13,North,0,2.6,2.6,65,0.00,,,0.00,WUHU216HW,2013-08-01 23:14:00,
2013-08-01 19:19:00,78.4,66.1,30.13,NNW,338,0.0,2.6,65,0.00,,,0.00,WUHU216HW,2013-08-01 23:19:00,
2013-08-01 19:24:00,78.0,66.2,30.13,NW,315,0.0,0.0,67,0.00,,,0.00,WUHU216HW,2013-08-01 23:24:00,
2013-08-01 19:29:00,78.0,66.2,30.13,NNE,23,0.0,0.0,67,0.00,,,0.00,WUHU216HW,2013-08-01 23:29:00,
2013-08-01 19:34:00,77.7,65.8,30.13,NW,315,0.0,0.0,67,0.00,,,0.00,WUHU216HW,2013-08-01 23:34:00,
2013-08-01 19:39:00,77.5,65.6,30.13,North,0,0.0,0.0,67,0.00,,,0.00,WUHU216HW,2013-08-01 23:39:00,
2013-08-01 19:45:00,77.3,65.9,30.13,North,0,0.0,0.0,68,0.00,,,0.00,WUHU216HW,2013-08-01 23:45:00,
2013-08-01 19:50:00,77.1,65.8,30.14,NNW,338,0.0,0.0,68,0.00,,,0.00,WUHU216HW,2013-08-01 23:50:00,
2013-08-01 19:55:00,77.0,66.1,30.14,NNW,338,0.0,0.0,69,0.00,,,0.00,WUHU216HW,2013-08-01 23:55:00,
2013-08-01 20:00:00,76.8,65.9,30.14,NNW,338,0.0,0.0,69,0.00,,,0.00,WUHU216HW,2013-08-02 00:00:00,
2013-08-01 20:05:00,76.6,65.7,30.14,NNW,338,0.0,0.0,69,0.00,,,0.00,WUHU216HW,2013-08-02 00:05:00,
2013-08-01 20:10:00,76.2,65.3,30.14,NNW,338,0.0,0.0,69,0.00,,,0.00,WUHU216HW,2013-08-02 00:10:00,
2013-08-01 20:15:00,75.9,65.4,30.14,NNW,338,0.0,0.0,70,0.00,,,0.00,WUHU216HW,2013-08-02 00:15:00,
2013-08-01 20:20:00,75.5,65.1,30.14,NNW,338,0.0,0.0,70,0.00,,,0.00,WUHU216HW,2013-08-02 00:20:00,
2013-08-01 20:25:00,75.2,65.1,30.15,NNW,338,0.0,0.0,71,0.00,,,0.00,WUHU216HW,2013-08-02 00:25:00,
2013-08-01 20:30:00,74.8,64.8,30.15,NNW,338,0.0,0.0,71,0.00,,,0.00,WUHU216HW,2013-08-02 00:30:00,
2013-08-01 20:36:00,74.6,64.6,30.16,NNW,338,0.0,0.0,71,0.00,,,0.00,WUHU216HW,2013-08-02 00:36:00,
2013-08-01 20:41:00,74.4,64.4,30.15,NNW,338,0.0,0.0,71,0.00,,,0.00,WUHU216HW,2013-08-02 00:41:00,
2013-08-01 20:47:00,74.3,64.7,30.16,NNW,338,0.0,0.0,72,0.00,,,0.00,WUHU216HW,2013-08-02 00:47:00,
2013-08-01 20:52:00,74.1,64.5,30.16,NNW,338,0.0,0.0,72,0.00,,,0.00,WUHU216HW,2013-08-02 00:52:00,
2013-08-01 20:57:00,73.9,64.7,30.16,NNW,338,0.0,0.0,73,0.00,,,0.00,WUHU216HW,2013-08-02 00:57:00,
2013-08-01 21:02:00,73.5,64.4,30.16,NNW,338,0.0,0.0,73,0.00,,,0.00,WUHU216HW,2013-08-02 01:02:00,
2013-08-01 21:07:00,73.2,64.0,30.16,NNW,338,0.0,0.0,73,0.00,,,0.00,WUHU216HW,2013-08-02 01:07:00,
2013-08-01 21:12:00,73.2,64.4,30.16,NNW,338,0.0,0.0,74,0.00,,,0.00,WUHU216HW,2013-08-02 01:12:00,
2013-08-01 21:18:00,72.8,64.1,30.16,NNW,338,0.0,0.0,74,0.00,,,0.00,WUHU216HW,2013-08-02 01:18:00,
2013-08-01 21:23:00,72.3,63.9,30.16,NNW,338,0.0,0.0,74,0.00,,,0.00,WUHU216HW,2013-08-02 01:23:00,
2013-08-01 21:28:00,72.1,63.7,30.16,NNW,338,0.0,0.0,75,0.00,,,0.00,WUHU216HW,2013-08-02 01:28:00,
2013-08-01 21:34:00,71.7,63.7,30.17,NNW,338,0.0,0.0,76,0.00,,,0.00,WUHU216HW,2013-08-02 01:34:00,
2013-08-01 21:39:00,71.7,63.7,30.17,NNW,338,0.0,0.0,76,0.00,,,0.00,WUHU216HW,2013-08-02 01:39:00,
2013-08-01 21:44:00,71.4,63.4,30.17,NNW,338,0.0,0.0,76,0.00,,,0.00,WUHU216HW,2013-08-02 01:44:00,
2013-08-01 21:49:00,71.4,63.8,30.17,NNW,338,0.0,0.0,77,0.00,,,0.00,WUHU216HW,2013-08-02 01:49:00,
2013-08-01 21:54:00,71.2,63.6,30.17,NNW,338,0.0,0.0,77,0.00,,,0.00,WUHU216HW,2013-08-02 01:54:00,
2013-08-01 21:59:00,70.8,63.6,30.17,NNW,338,0.0,0.0,78,0.00,,,0.00,WUHU216HW,2013-08-02 01:59:00,
2013-08-01 22:04:00,70.5,63.2,30.17,NNW,338,0.0,0.0,78,0.00,,,0.00,WUHU216HW,2013-08-02 02:04:00,
2013-08-01 22:09:00,70.3,63.1,30.18,NNW,338,0.0,0.0,78,0.00,,,0.00,WUHU216HW,2013-08-02 02:09:00,
2013-08-01 22:14:00,70.3,63.1,30.17,NNW,338,0.0,0.0,78,0.00,,,0.00,WUHU216HW,2013-08-02 02:14:00,
2013-08-01 22:20:00,70.1,62.9,30.17,NNW,338,0.0,0.0,78,0.00,,,0.00,WUHU216HW,2013-08-02 02:20:00,
2013-08-01 22:25:00,69.9,63.1,30.18,NNW,338,0.0,0.0,79,0.00,,,0.00,WUHU216HW,2013-08-02 02:25:00,
2013-08-01 22:30:00,69.9,63.1,30.18,NNW,338,0.0,0.0,79,0.00,,,0.00,WUHU216HW,2013-08-02 02:30:00,
2013-08-01 22:35:00,69.6,62.7,30.17,NNW,338,0.0,0.0,79,0.00,,,0.00,WUHU216HW,2013-08-02 02:35:00,
2013-08-01 22:40:00,69.4,62.9,30.17,NNW,338,0.0,0.0,80,0.00,,,0.00,WUHU216HW,2013-08-02 02:40:00,
2013-08-01 22:45:00,69.0,62.6,30.18,NNW,338,0.0,0.0,80,0.00,,,0.00,WUHU216HW,2013-08-02 02:45:00,
2013-08-01 22:51:00,69.0,62.6,30.17,NNW,338,0.0,0.0,80,0.00,,,0.00,WUHU216HW,2013-08-02 02:51:00,
2013-08-01 22:56:00,68.9,62.8,30.16,NNW,338,0.0,0.0,81,0.00,,,0.00,WUHU216HW,2013-08-02 02:56:00,
2013-08-01 23:01:00,68.5,62.5,30.17,NNW,338,0.0,0.0,81,0.00,,,0.00,WUHU216HW,2013-08-02 03:01:00,
2013-08-01 23:06:00,68.5,62.5,30.17,NNW,338,0.0,0.0,81,0.00,,,0.00,WUHU216HW,2013-08-02 03:06:00,
2013-08-01 23:11:00,68.3,62.3,30.17,NNW,338,0.0,0.0,81,0.00,,,0.00,WUHU216HW,2013-08-02 03:11:00,
2013-08-01 23:16:00,68.1,62.1,30.17,NNW,338,0.0,0.0,81,0.00,,,0.00,WUHU216HW,2013-08-02 03:16:00,
2013-08-01 23:21:00,67.8,62.1,30.17,NNW,338,0.0,0.0,82,0.00,,,0.00,WUHU216HW,2013-08-02 03:21:00,
2013-08-01 23:26:00,67.8,62.1,30.17,NNW,338,0.0,0.0,82,0.00,,,0.00,WUHU216HW,2013-08-02 03:26:00,
2013-08-01 23:31:00,67.8,62.1,30.18,NNW,338,0.0,0.0,82,0.00,,,0.00,WUHU216HW,2013-08-02 03:31:00,
2013-08-01 23:36:00,67.6,61.9,30.18,NNW,338,0.0,0.0,82,0.00,,,0.00,WUHU216HW,2013-08-02 03:36:00,
2013-08-01 23:42:00,67.2,61.9,30.18,NNW,338,0.0,0.0,83,0.00,,,0.00,WUHU216HW,2013-08-02 03:42:00,
2013-08-01 23:47:00,67.2,61.9,30.19,NNW,338,0.0,0.0,83,0.00,,,0.00,WUHU216HW,2013-08-02 03:47:00,
2013-08-01 23:52:00,67.2,61.9,30.18,NNW,338,0.0,0.0,83,0.00,,,0.00,WUHU216HW,2013-08-02 03:52:00,
2013-08-01 23:57:00,67.1,61.7,30.18,NNW,338,0.0,0.0,83,0.00,,,0.00,WUHU216HW,2013-08-02 03:57:00,